Location: Red Rock Farm
(35.2100°N, 97.2200°W)
Time: 10:16:25
(UTC-05:00)

ISS - All Passes

Search period start: 29 May 2016 00:00
Search period end: 08 June 2016 00:00
Orbit: 402 x 404 km, 51.6° (Epoch: 29 May)

Date Brightness Start Highest point End Pass type
(mag) Time Alt. Az. Time Alt. Az. Time Alt. Az.
29 May - 04:22:57 10° NW 04:26:06 45° NE 04:29:15 10° ESE visible
29 May - 06:00:37 10° W 06:02:13 13° SW 06:03:51 10° SSW daylight
29 May - 20:59:55 10° SW 21:03:10 86° SE 21:06:26 10° NE visible
29 May - 22:38:26 10° NW 22:40:01 13° NNW 22:41:35 10° N visible
30 May - 03:30:28 10° NNW 03:33:13 24° NE 03:35:57 10° E visible
30 May - 05:06:48 10° WNW 05:09:37 27° SW 05:12:26 10° SSE visible
30 May - 20:07:24 10° SSW 20:10:26 36° SE 20:13:29 10° ENE daylight
30 May - 21:44:27 10° W 21:46:58 20° NNW 21:49:29 10° NNE visible
31 May - 02:38:13 10° N 02:40:12 15° NNE 02:42:10 10° ENE visible
31 May - 04:13:41 10° NW 04:16:55 63° SW 04:20:07 10° SE night (unlit)
31 May - 19:15:33 10° S 19:17:47 17° SE 19:20:02 10° E daylight
31 May - 20:50:58 10° WSW 20:54:01 35° NW 20:57:03 10° NNE daylight
01 Jun - 03:20:54 10° NW 03:24:07 57° NE 03:27:19 10° ESE night (unlit)
01 Jun - 04:59:30 10° WSW 05:00:09 10° SW 05:00:48 10° SW night (unlit)
01 Jun - 19:57:53 10° SW 20:01:08 75° NW 20:04:24 10° NE daylight
01 Jun - 21:36:56 10° NW 21:38:03 11° NNW 21:39:10 10° N visible
02 Jun - 02:28:18 10° NNW 02:31:12 28° NE 02:34:06 10° E visible
02 Jun - 04:04:56 10° WNW 04:07:32 22° SW 04:10:07 10° S night (unlit)
02 Jun - 19:05:12 10° SSW 19:08:20 46° SE 19:11:30 10° ENE daylight
02 Jun - 20:42:39 10° WNW 20:44:57 17° NNW 20:47:15 10° NNE daylight
03 Jun - 01:35:56 10° NNW 01:38:11 17° NNE 01:40:25 10° ENE visible
03 Jun - 03:11:39 10° WNW 03:14:49 49° SW 03:17:57 10° SSE night (unlit)
03 Jun - 18:13:04 10° S 18:15:37 21° SE 18:18:11 10° ENE daylight
03 Jun - 19:49:01 10° W 19:51:55 29° NW 19:54:51 10° NNE daylight
04 Jun - 00:44:03 10° N 00:45:04 11° NNE 00:46:04 10° NE visible
04 Jun - 02:18:44 10° NW 02:22:00 72° NE 02:25:14 10° SE night (unlit)
04 Jun - 17:22:49 10° SE 17:22:58 10° SE 17:23:07 10° ESE daylight
04 Jun - 18:55:46 10° WSW 18:58:59 60° NW 19:02:13 10° NE daylight
04 Jun - 20:35:44 10° NNW 20:35:59 10° NNW 20:36:15 10° NNW daylight
05 Jun - 01:26:03 10° NNW 01:29:05 34° NE 01:32:04 10° ESE visible
05 Jun - 03:03:01 10° W 03:05:19 18° SW 03:07:36 10° S night (unlit)
05 Jun - 18:02:56 10° SW 18:06:08 60° SE 18:09:21 10° NE daylight
05 Jun - 19:40:47 10° WNW 19:42:49 15° NNW 19:44:52 10° N daylight
06 Jun - 00:33:34 10° NNW 00:36:03 20° NNE 00:38:30 10° E visible
06 Jun - 02:09:32 10° WNW 02:12:34 38° SW 02:15:38 10° SSE night (unlit)
06 Jun - 17:10:34 10° S 17:13:21 26° SE 17:16:09 10° ENE daylight
06 Jun - 18:46:57 10° W 18:49:44 25° NW 18:52:31 10° NNE daylight
06 Jun - 23:41:26 10° N 23:42:54 12° NNE 23:44:24 10° NE visible
07 Jun - 01:16:29 10° NW 01:19:45 90° WSW 01:23:00 10° SE visible
07 Jun - 16:19:09 10° SSE 16:20:38 13° SE 16:22:07 10° E daylight
07 Jun - 17:53:34 10° WSW 17:56:44 48° NW 17:59:54 10° NE daylight
